{"data":{"norad_id":66146,"intl_designator":"2025-240A","name":"STARLINK-35318","alt_names":[],"object_type":"PAYLOAD","status":"ACTIVE","operator":null,"country":"US","launch_date":"2025-10-25","launch_site_code":"AFETR","launch_vehicle":null,"mission":null,"orbit_class":"UNKNOWN","rcs_meters":null,"size_class":null,"mass_kg":null,"dimensions":null,"purposes":["comms"],"wikipedia_slug":null,"has_3d_model":false,"image_url":null,"decayed_at":null,"tle_current":{"epoch":"2026-05-25T01:57:32.398272Z","epoch_age_seconds":72015,"freshness":"FRESH","line1":"1 66146U 25240A   26145.08162498  .00014818  00000+0  44886-3 0  9996","line2":"2 66146  53.1576  67.3306 0000931  81.1561 278.9547 15.34397198 33741","mean_motion":15.34397198,"eccentricity":9.31e-5,"inclination_deg":53.1576,"raan_deg":67.3306,"arg_perigee_deg":81.1561,"mean_anomaly_deg":278.9547,"bstar":0.00044886,"rev_number":3374,"period_min":93.847929459006,"perigee_km":462.07468535256,"apogee_km":463.34845135599,"semimajor_km":6840.8485683543,"source":"CELESTRAK","updated_at":"2026-05-25T13:38:21.068385Z"}}}